This is the latest recevied weather packets stored in our database for station/object DO7CRZ-11. If no packets are shown the sender has not sent any weather packets the latest 10 day(s).
| Time | Temp. | Humidity | Pressure | Rain* | Wind** | Luminosity | Snow |
|---|---|---|---|---|---|---|---|
| 1777422128 | 1.11° C | 60% | 1024.9 hPa | 0 mm | - | 0 W/m² | - |
| 1777421530 | 1.11° C | 60% | 1024.8 hPa | 0 mm | - | 0 W/m² | - |
| 1777420933 | 1.11° C | 60% | 1024.8 hPa | 0 mm | - | 0 W/m² | - |
| 1777420335 | 1.67° C | 59% | 1024.9 hPa | 0 mm | - | 0 W/m² | - |
| 1777419728 | 1.67° C | 59% | 1024.8 hPa | 0 mm | - | 0 W/m² | - |
| 1777419130 | 1.67° C | 57% | 1024.7 hPa | 0 mm | - | 0 W/m² | - |
| 1777418533 | 1.67° C | 56% | 1024.8 hPa | 0 mm | - | 0 W/m² | - |
| 1777417926 | 2.22° C | 56% | 1024.7 hPa | 0 mm | - | 0 W/m² | - |
| 1777416731 | 2.78° C | 54% | 1024.8 hPa | 0 mm | - | 0 W/m² | - |
| 1777415535 | 3.33° C | 52% | 1024.8 hPa | 0 mm | - | 0 W/m² | - |
| 1777414333 | 3.89° C | 51% | 1024.9 hPa | 0 mm | - | 0 W/m² | - |
| 1777413733 | 3.89° C | 49% | 1024.7 hPa | 0 mm | - | 0 W/m² | - |
| 1777413136 | 3.89° C | 48% | 1024.8 hPa | 0 mm | - | 0 W/m² | - |
| 1777412528 | 4.44° C | 47% | 1024.8 hPa | 0 mm | - | 0 W/m² | - |
| 1777411931 | 4.44° C | 47% | 1024.8 hPa | 0 mm | - | 0 W/m² | - |
| 1777411334 | 4.44° C | 46% | 1024.7 hPa | 0 mm | - | 0 W/m² | - |
| 1777410726 | 5° C | 45% | 1024.8 hPa | 0 mm | - | 0 W/m² | - |
| 1777410129 | 5° C | 45% | 1024.8 hPa | 0 mm | - | 0 W/m² | - |
| 1777409532 | 5.56° C | 44% | 1024.8 hPa | 0 mm | - | 0 W/m² | - |
| 1777408935 | 5.56° C | 44% | 1024.7 hPa | 0 mm | - | 0 W/m² | - |
| 1777408327 | 5.56° C | 43% | 1024.7 hPa | 0 mm | - | 0 W/m² | - |
| 1777407731 | 5.56° C | 42% | 1024.7 hPa | 0 mm | - | 0 W/m² | - |
| 1777407133 | 6.11° C | 42% | 1024.7 hPa | 0 mm | - | 0 W/m² | - |
| 1777406536 | 6.11° C | 41% | 1024.7 hPa | 0 mm | - | 0 W/m² | - |
| 1777405928 | 6.67° C | 40% | 1024.6 hPa | 0 mm | - | 0 W/m² | - |
* Rain latest hour (hover to see other rain measurements)
** Current wind speed in m/s (hover to see current wind gust speed)